Regional Weather Roundup
Issued by NWS

Home | Current Version | Previous Version | Graphics & Text | Print | Product List | Glossary Off
Versions: 1 2 3 4 5 6 7 8 9 10 11 12 13 14 15 16 17 18 19 20 21 22 23 24 25 26 27 28 29 30 31 32 33 34 35 36 37 38 39 40 41 42 43 44 45 46 47 48 49 50

039
ASUS43 KMKX 071611
RWRWI

WISCONSIN REGIONAL WEATHER ROUNDUP
NATIONAL WEATHER SERVICE MILWAUKEE/SULLIVAN WI
1000 AM CST SUN FEB 07 2016

NOTE: "FAIR" INDICATES FEW OR NO CLOUDS BELOW 12,000 FEET WITH NO
SIGNIFICANT WEATHER AND/OR OBSTRUCTIONS TO VISIBILITY.

WIZ001-002-006>008-014>016-023>028-071700-
NORTHWEST WISCONSIN

CITY           SKY/WX    TMP DP  RH WIND       PRES   REMARKS
SUPERIOR ARPT  CLOUDY    36  33  91 SW8       29.47S WCI  29
ASHLAND        CLOUDY    35  31  85 SW9       29.48F FOG     WCI  28
HAYWARD        CLOUDY    35  30  82 SW8       29.50S WCI  29
SIREN          CLOUDY    36  30  79 W13G20    29.53R WCI  28
CUMBERLAND     CLOUDY    34  30  86 W15G23    29.54R WCI  24
RICE LAKE      CLOUDY    37  30  78 SW14G22   29.56S WCI  28
CHETEK         CLOUDY    36  31  82 W7        29.56S WCI  30
LADYSMITH      CLOUDY    34  30  86 SW12      29.56S WCI  25
EAU CLAIRE     CLOUDY    36  28  73 SW12      29.59F WCI  28
MENOMONIE      CLOUDY    38  30  70 SW13G20   29.60S WCI  31
NEW RICHMOND   CLOUDY    38  27  66 W18       29.59S WCI  28
OSCEOLA        CLOUDY    38  28  67 W15       29.61S WCI  30
$$

WIZ003>005-009-010-017-018-071700-
NORTH CENTRAL WISCONSIN

CITY           SKY/WX    TMP DP  RH WIND       PRES   REMARKS
MANITOWISH WTR CLOUDY    31  30  97 SW10      29.49S WCI  22
ARBOR VITAE    CLOUDY    32  30  92 SW8       29.50F FOG     WCI  25
WOODRUFF       CLOUDY    32  30  92 SW8       29.50F FOG     WCI  25
RHINELANDER    CLOUDY    31  28  89 SW13      29.53F WCI  21
EAGLE RIVER    CLOUDY    31  30  96 SW7       29.51F FOG     WCI  24
LAND O LAKES   CLOUDY    31  30  94 S6        29.51F FOG     WCI  26
PHILLIPS       CLOUDY    32  29  90 SW9       29.51F WCI  24
TOMAHAWK       CLOUDY    32  28  86 SW6       29.54F WCI  26
MEDFORD        CLOUDY    32  29  89 SW9G16    29.55S WCI  24
MERRILL        CLOUDY    32  29  89 SW7       29.57S WCI  26
$$

WIZ029-030-035-036-043>047-071700-
CENTRAL WISCONSIN

CITY           SKY/WX    TMP DP  RH WIND       PRES   REMARKS
WAUSAU         CLOUDY    34  28  79 SW10      29.57F WCI  26
MOSINEE        CLOUDY    32  30  93 SW10      29.60F WCI  24
MARSHFIELD     CLOUDY    35  27  72 W14       29.58S WCI  26
STEVENS POINT  MOSUNNY   35  28  76 SW12G20   29.61F WCI  27
WAUPACA        SUNNY     40  30  66 SW13      29.63F WCI  33
WAUTOMA        SUNNY     40  30  67 SW15      29.64F WCI  32
WISC RAPIDS    SUNNY     37  27  67 SW12      29.63F WCI  29
CAMP DOUGLAS   MOSUNNY   37  34  87 W14       29.65S WCI  29
$$

WIZ011>013-019>022-031-037>040-048>050-071700-
NORTHEAST WISCONSIN

CITY           SKY/WX    TMP DP  RH WIND       PRES   REMARKS
ANTIGO         CLOUDY    32  28  87 SW13G18   29.56S WCI  22
SHAWANO        SUNNY     39  30  71 SW12      29.61F WCI  32
OCONTO         SUNNY     39  31  73 SW12G18   29.61F WCI  31
STURGEON BAY   CLOUDY    36  28  75 S12       29.65F WCI  27
GREEN BAY      SUNNY     37  30  75 SW12      29.63F WCI  29
MANITOWOC      MOSUNNY   40  30  67 SW17G23   29.65F WCI  31
APPLETON       MOSUNNY   37  28  70 S14       29.62F WCI  29
CLINTONVILLE   SUNNY     36  30  80 SW12      29.61F WCI  27
OSHKOSH        SUNNY     37  29  72 SW10      29.65F WCI  30
$$

WIZ032>034-041-042-053>061-071700-
SOUTHWEST WISCONSIN

CITY           SKY/WX    TMP DP  RH WIND       PRES   REMARKS
LA CROSSE      CLOUDY    38  27  64 W10       29.68F WCI  31
SPARTA         CLOUDY    37  29  72 W9G17     29.67S WCI  31
VIROQUA        CLOUDY    37  28  71 W14       29.68S WCI  28
BOSCOBEL       SUNNY     40  29  64 W9        29.72F WCI  34
PRAIRIE DU CHI SUNNY     38  26  61 W10       29.74F WCI  31
PLATTEVILLE    SUNNY     37  31  79 W14       29.74S WCI  28
$$

WIZ056-057-062-063-064-067-068-071700-
SOUTH CENTRAL WISCONSIN

CITY           SKY/WX    TMP DP  RH WIND       PRES   REMARKS
REEDSBURG      SUNNY     37  30  75 W8        29.68S WCI  31
BARABOO/DELLS  SUNNY     37  29  72 SW12      29.68R WCI  29
LONE ROCK      SUNNY     38  29  70 W14       29.71F WCI  30
MINERAL POINT  SUNNY     37  32  81 W14       29.71F WCI  29
MADISON        MOSUNNY   38  29  70 SW10G21   29.70F WCI  31
MIDDLETON      SUNNY     40  30  68 W12G18    29.70S WCI  33
WATERTOWN      CLOUDY    37  31  77 SW12      29.69F WCI  30
MONROE         CLOUDY    36  30  80 SW18G24   29.71F WCI  25
JANESVILLE     MOSUNNY   39  30  70 SW13      29.73F WCI  32
$$

WIZ051-052-058>065-066-070>072-071700-
SOUTHEAST WISCONSIN

CITY           SKY/WX    TMP DP  RH WIND       PRES   REMARKS
MILWAUKEE      CLOUDY    40  28  62 SW21G29   29.71F WCI  30
WAUKESHA       PTSUNNY   36  28  75 SW12G17   29.72F WCI  27
MILWAUKEE/TIMM SUNNY     39  27  60 SW15G22   29.71F WCI  31
RACINE         CLOUDY    41  28  60 SW18G29   29.73F
BURLINGTON     CLOUDY    37  28  72 SW14G23   29.73F WCI  28
KENOSHA        CLOUDY    40  29  64 SW17G25   29.73F WCI  31
FOND DU LAC    SUNNY     38  29  70 SW13      29.66F WCI  30
SHEBOYGAN      SUNNY     38  29  70 SW14      29.66F WCI  30
WEST BEND      MOSUNNY   37  30  75 SW9G22    29.68F WCI  31
JUNEAU         SUNNY     36  29  75 SW15      29.69F WCI  27
$$

LSZ147-162-071700-
LAKE SUPERIOR

STATION/POSITION TIME  TEMP    WIND        PRES    WAVE
                       AIR SEA DIR/SP/G            HT/PER
                 (UTC) (F)     (DEG/KT/KT) (MB)    (FT/S)
DEVILS ISLAND    1600   32     180/  6/  9  998.5F
SAXON HARBOR     1500   34                  998.6F
$$

LMZ867-665-643>646-071700-
LAKE MICHIGAN

STATION/POSITION TIME  TEMP    WIND        PRES    WAVE
                       AIR SEA DIR/SP/G            HT/PER
                 (UTC) (F)     (DEG/KT/KT) (MB)    (FT/S)
CHAMBERS ISLAND  1500   36     180/  8/ 13 1004.4F
NORTHPORT PIER   1500   37     160/  4/ 11 1004.1
ALGOMA LAKESHORE 1511          220/ 10/ 11   N/A
KEWAUNEE LAKESHO 1500   35     200/  7/  8 1004.0F
SHEBOYGAN LAKESH 1600   40     230/ 15/ 19 1005.4F
PORT WASHINGTON  1500   40     220/  6/ 18 1006.4F
MILWAUKEE LAKESH 1510   39     220/ 19/ 22   N/A
KENOSHA   LAKESH 1600   41     230/ 13/ 21 1007.1F
$$

TC  - TEMPERATURE IN CELSIUS
VSB - VISIBILITY IN STATUTE MILES
WCI - WIND CHILL INDEX
HX  - HEAT INDEX





USA.gov is the U.S. government's official web portal to all federal, state and local government web resources and services.